Location: Kielce
(50.8833°N, 20.6167°E)
Time: 18:22:34
(UTC+02:00)

A-11 Canister half - Visible Passes

Search period start: 11 April 2021 00:00
Search period end: 21 April 2021 00:00
Orbit: 1525 x 1683 km, 47.3° (Epoch: 11 April)

Date Brightness Start Highest point End Pass type
(mag) Time Alt. Az. Time Alt. Az. Time Alt. Az.
11 Apr 10.2 01:13:00 10° W 01:17:50 25° WSW 01:17:50 25° WSW visible
11 Apr 9.2 20:40:56 10° WSW 20:51:04 73° S 21:00:34 12° E visible
11 Apr 9.1 22:45:53 10° W 22:55:48 62° SSW 22:58:50 46° SE visible
12 Apr 10.0 00:51:15 10° W 00:57:06 28° WSW 00:57:06 28° WSW visible
12 Apr 9.2 20:19:15 10° WSW 20:29:23 73° S 20:39:24 10° E visible
12 Apr 9.1 22:24:11 10° W 22:34:09 63° SSW 22:38:07 39° SE visible
13 Apr 9.9 00:29:30 10° W 00:36:23 31° WSW 00:36:23 31° WSW visible
13 Apr 9.2 19:57:35 10° WSW 20:07:42 73° S 20:17:43 10° E visible
13 Apr 9.2 22:02:29 10° W 22:12:28 64° SSW 22:17:24 33° SE visible
14 Apr 9.8 00:07:46 10° W 00:15:42 34° SW 00:15:42 34° SW visible
14 Apr 9.2 21:40:48 10° W 21:50:49 65° SSW 21:56:43 28° SE visible
14 Apr 9.7 23:46:02 10° W 23:54:48 35° SW 23:55:00 35° SW visible
15 Apr 9.2 21:19:06 10° W 21:29:09 66° SSW 21:36:02 23° ESE visible
15 Apr 9.6 23:24:18 10° W 23:33:11 37° SW 23:34:20 36° SSW visible
16 Apr 9.2 20:57:25 10° W 21:07:28 67° SSW 21:15:23 18° ESE visible
16 Apr 9.6 23:02:35 10° W 23:11:35 38° SW 23:13:40 35° SSW visible
17 Apr 10.8 01:11:10 10° WSW 01:11:57 11° WSW 01:11:57 11° WSW visible
17 Apr 9.3 20:35:44 10° W 20:45:48 68° SSW 20:54:45 14° ESE visible
17 Apr 9.7 22:40:51 10° W 22:49:57 40° SW 22:53:02 33° S visible
18 Apr 10.7 00:48:53 10° W 00:51:19 12° WSW 00:51:19 12° WSW visible
18 Apr 9.3 20:14:02 10° W 20:24:07 69° SSW 20:34:05 10° ESE visible
18 Apr 9.7 22:19:08 10° W 22:28:20 41° SW 22:32:25 29° S visible
19 Apr 10.7 00:26:45 10° W 00:30:42 14° WSW 00:30:42 14° WSW visible
19 Apr 9.7 21:57:25 10° W 22:06:43 42° SW 22:11:50 26° SSE visible
20 Apr 10.6 00:04:41 10° W 00:09:37 15° SW 00:10:07 15° SW visible
20 Apr 9.7 21:35:42 10° W 21:45:05 44° SW 21:51:17 22° SSE visible
20 Apr 10.5 23:42:41 10° W 23:48:04 16° SW 23:49:34 15° SW visible
